Location: Taschereau
(48.6670°N, 78.7000°W)
Time: 10:51:50
(UTC-04:00)

ISS - Visible Passes

Search period start: 25 June 2019 00:00
Search period end: 05 July 2019 00:00
Orbit: 408 x 418 km, 51.6° (Epoch: 25 June)

Date Brightness Start Highest point End Pass type
(mag) Time Alt. Az. Time Alt. Az. Time Alt. Az.
01 Jul -1.6 04:24:57 10° S 04:27:11 17° SE 04:29:26 10° E visible
02 Jul -1.2 03:37:03 10° SSE 03:37:50 11° SE 03:38:37 10° ESE visible
03 Jul -2.8 04:21:20 10° SSW 04:24:21 35° SSE 04:27:25 10° E visible
04 Jul -2.2 03:33:29 18° S 03:34:52 23° SE 03:37:34 10° E visible
